Flag for Canada Weather past 2 weeks in New Westminster, British Columbia, Canada

Now
49 °F

Cool.


Feels Like: 48 °F
Forecast: 44 / 53 °F
Wind: 3 mph from Southeast

Location: P. Meadows Coastal Station

Current Time: May 5, 2015 at 2:17:55 AM

Latest Report: May 5, 2015 at 1:00 AM


Visibility: N/A

Pressure: 29.95 "Hg

Humidity: 90%

Dew point: 46 °F

Location of New WestminsterLocation

Historic Weather in New Westminster — Graph

°F

New Westminster temperature yesterday

Maximum temperature yesterday: 64 °F (at 4:00 PM)
Minimum temperature yesterday: 41 °F (at 3:00 AM)
Average temperature yesterday: 52 °F

Past Weeks' High & Low Weather Summary

 TemperatureHumidityPressure
High72 °F (Apr 20, 4:00 PM)100% (Apr 27, 6:00 AM)30.30 "Hg (Apr 27, 6:00 AM)
Low36 °F (Apr 26, 6:00 AM)33% (May 3, 7:00 PM)29.72 "Hg (Apr 24, 5:00 AM)
Average51 °F76%30.02 "Hg
* Reported Apr 20 1:00 AM — May 5 1:00 AM, New Westminster, Weather by CustomWeather, © 2015

Note: Actual official high and low records may vary slightly from our data, if they occured in-between our weather recording intervals... More about our weather records

Advertising

New Westminster weather history for previous 24 hours

 ConditionsComfort  
Time TempWeatherWind HumidityBarometerVisibility
1:00 AM
Tue, May 5
49 °FCool.3 mph90%29.95 "HgN/A
12:00 AM48 °FCool.5 mph89%29.94 "HgN/A
10:00 PM
Mon, May 4
50 °FCool.8 mph86%29.93 "HgN/A
9:00 PM53 °FCool.2 mph69%29.91 "HgN/A
8:00 PM53 °FCool.5 mph74%29.91 "HgN/A
7:00 PM55 °FCool.3 mph70%29.91 "HgN/A
6:00 PM56 °FCool.6 mph64%29.91 "HgN/A
5:00 PM61 °FRefreshingly cool.6 mph45%29.90 "HgN/A
4:00 PM64 °FMild.3 mph41%29.90 "HgN/A
3:00 PM62 °FRefreshingly cool.6 mph43%29.91 "HgN/A
2:00 PM60 °FRefreshingly cool.5 mph52%29.91 "HgN/A
1:00 PM59 °FRefreshingly cool.6 mph56%29.90 "HgN/A
12:00 PM60 °FRefreshingly cool.6 mph51%29.88 "HgN/A
11:00 AM61 °FRefreshingly cool.6 mph55%29.87 "HgN/A
10:00 AM59 °FRefreshingly cool.2 mph55%29.86 "HgN/A
9:00 AM55 °FCool.2 mph68%29.86 "HgN/A
8:00 AM51 °FCool.1 mph78%29.86 "HgN/A
7:00 AM45 °FCool.No wind92%29.86 "HgN/A
6:00 AM41 °FQuite cool.No wind94%29.85 "HgN/A
5:00 AM42 °FQuite cool.No wind96%29.86 "HgN/A
4:00 AM42 °FQuite cool.No wind94%29.86 "HgN/A
3:00 AM41 °FQuite cool.No wind93%29.87 "HgN/A
2:00 AM43 °FQuite cool.1 mph94%29.86 "HgN/A
Weather by CustomWeather, © 2015

See weather overviewHow to use our weather pages